Location: Anjeux
(47.8815°N, 6.2076°E)
Time: 04:59:35
(UTC+00:00)

ISS - Pass Details

Date: 29 September 2021
Orbit: 417 x 423 km, 51.6° (Epoch: 27 October)

Event Time Altitude Azimuth Distance (km) Brightness Sun altitude
Rises 18:13:09 0° 288° (WNW) 2,366 2.0 -10.0°
Reaches altitude 10° 18:15:18 10° 294° (WNW) 1,502 0.4 -10.4°
Maximum altitude 18:18:35 49° 11° (NNE) 549 -3.2 -10.9°
Enters shadow 18:20:54 17° 83° (E) 1,128 -2.2 -11.3°
